Location: ????????
(37.9452°N, 23.1472°E)
Time: 10:57:13
(UTC+00:00)

OAO 3 Rocket - Pass Details

Date: 18 April 2024
Orbit: 622 x 672 km, 35.0° (Epoch: 18 May)

Event Time Altitude Azimuth Distance (km) Brightness Sun altitude
Rises 18:20:19 0° 273° (W) 2,978 7.8 -14.4°
Reaches altitude 10° 18:22:53 10° 263° (W) 2,073 6.6 -14.9°
Maximum altitude 18:27:07 30° 202° (SSW) 1,178 4.4 -15.6°
Enters shadow 18:29:30 20° 157° (SSE) 1,524 4.6 -16.0°
